Weather History for Mount Carmel, IL

Change the Weather History Date:

Monday, September 16, 2013

  Actual Average (KLWV) Record (KLWV)
Temperature  
Mean Temperature 66 °F 70 °F  
Max Temperature 73 °F 82 °F 94 °F (1991)
Min Temperature 60 °F 57 °F 43 °F (2000)
Degree Days  
Heating Degree Days 0 1  
Month to date heating degree days 3  
Since 1 July heating degree days 4  
Cooling Degree Days 2 5  
Month to date cooling degree days 118  
Year to date cooling degree days 1301  
Growing Degree Days 16 (Base 50)    
Moisture  
Dew Point 59 °F    
Average Humidity 73    
Maximum Humidity 88    
Minimum Humidity 57    
Precipitation  
Precipitation 0.00 in 0.10 in 0.60 in (1987)
Month to date precipitation 1.74  
Year to date precipitation 31.09  
Sea Level Pressure  
Sea Level Pressure 30.19 in    
Wind  
Wind Speed 6 mph (NNE)    
Max Wind Speed 16 mph    
Max Gust Speed 18 mph    
Visibility 10 miles    
Events      
T = Trace of Precipitation, MM = Missing Value Source: NWS Daily Summary

Daily Weather History Graph

Daily Weather History Graph

Search for Another Location

Airport:

Trip Planner

Search our weather history database for the weather conditions in past years. The results will help you decide how hot, cold, wet, or windy it might be!

Date:

Astronomy

Sep. 16, 2013 Rise Set
Actual Time 6:33 AM CDT 6:57 PM CDT
Civil Twilight 6:06 AM CDT 7:23 PM CDT
Nautical Twilight 5:35 AM CDT 7:54 PM CDT
Astronomical Twilight 5:03 AM CDT 8:26 PM CDT
Moon 5:04 PM CDT (9/16) 3:21 AM CDT (9/16)
Length of Visible Light 13h 16m
Length of Day
12h 23m
Waxing Gibbous, 90% of the Moon is Illuminated
Sep 16
Waxing Gibbous
Sep 19
Full
Sep 26
Last Quarter
Oct 4
New
Oct 11
First Quarter

Hourly Weather History & Observations

Time (CDT) Temp. Dew Point Humidity Pressure Visibility Wind Dir Wind Speed Gust Speed Precip Events Conditions
12:15 AM 69.8 °F 57.2 °F 64% 30.07 in 10.0 mi Calm Calm - N/A   Overcast
12:35 AM 69.8 °F 59.0 °F 68% 30.07 in 10.0 mi Calm Calm - N/A   Overcast
12:55 AM 69.8 °F 59.0 °F 68% 30.08 in 10.0 mi Calm Calm - N/A   Overcast
1:15 AM 68.0 °F 60.8 °F 78% 30.08 in 10.0 mi Calm Calm - N/A   Overcast
1:35 AM 68.0 °F 60.8 °F 78% 30.09 in 10.0 mi Calm Calm - N/A   Overcast
1:55 AM 68.0 °F 60.8 °F 78% 30.09 in 10.0 mi Calm Calm - N/A   Overcast
2:15 AM 68.0 °F 59.0 °F 73% 30.09 in 10.0 mi Calm Calm - N/A   Overcast
2:35 AM 68.0 °F 59.0 °F 73% 30.09 in 10.0 mi North 5.8 mph - N/A   Overcast
2:55 AM 68.0 °F 59.0 °F 73% 30.09 in 10.0 mi North 5.8 mph - N/A   Overcast
3:15 AM 68.0 °F 59.0 °F 73% 30.10 in 10.0 mi North 6.9 mph - N/A   Overcast
3:35 AM 68.0 °F 59.0 °F 73% 30.10 in 10.0 mi North 5.8 mph - N/A   Overcast
3:55 AM 68.0 °F 59.0 °F 73% 30.10 in 10.0 mi North 4.6 mph - N/A   Overcast
4:15 AM 68.0 °F 59.0 °F 73% 30.10 in 10.0 mi North 3.5 mph - N/A   Overcast
4:35 AM 66.2 °F 59.0 °F 78% 30.11 in 10.0 mi North 3.5 mph - N/A   Overcast
4:55 AM 66.2 °F 59.0 °F 78% 30.12 in 10.0 mi North 4.6 mph - N/A   Overcast
5:15 AM 66.2 °F 59.0 °F 78% 30.12 in 10.0 mi North 6.9 mph - N/A   Overcast
5:35 AM 66.2 °F 60.8 °F 83% 30.13 in 10.0 mi NNW 6.9 mph - N/A   Overcast
5:55 AM 64.4 °F 60.8 °F 88% 30.14 in 10.0 mi North 4.6 mph - N/A   Overcast
6:15 AM 64.4 °F 60.8 °F 88% 30.15 in 10.0 mi NNW 5.8 mph - N/A   Mostly Cloudy
6:35 AM 64.4 °F 60.8 °F 88% 30.15 in 10.0 mi North 8.1 mph - N/A   Overcast
6:55 AM 64.4 °F 60.8 °F 88% 30.16 in 10.0 mi North 6.9 mph - N/A   Overcast
7:15 AM 64.4 °F 60.8 °F 88% 30.17 in 10.0 mi North 8.1 mph - N/A   Overcast
7:35 AM 64.4 °F 60.8 °F 88% 30.18 in 10.0 mi North 8.1 mph - N/A   Overcast
7:55 AM 64.4 °F 60.8 °F 88% 30.18 in 10.0 mi North 9.2 mph - N/A   Overcast
8:15 AM 64.4 °F 60.8 °F 88% 30.19 in 10.0 mi North 6.9 mph - N/A   Overcast
8:35 AM 66.2 °F 60.8 °F 83% 30.20 in 10.0 mi NNE 11.5 mph - N/A   Overcast
8:55 AM 66.2 °F 60.8 °F 83% 30.20 in 10.0 mi NNE 10.4 mph - N/A   Overcast
9:15 AM 68.0 °F 59.0 °F 73% 30.21 in 10.0 mi NNE 10.4 mph - N/A   Overcast
9:35 AM 68.0 °F 59.0 °F 73% 30.22 in 10.0 mi NE 11.5 mph - N/A   Overcast
9:55 AM 68.0 °F 59.0 °F 73% 30.22 in 10.0 mi NE 12.7 mph 17.3 mph N/A   Overcast
10:15 AM 69.8 °F 59.0 °F 68% 30.22 in 10.0 mi NNE 16.1 mph - N/A   Overcast
10:35 AM 69.8 °F 59.0 °F 68% 30.23 in 10.0 mi NNE 11.5 mph - N/A   Overcast
10:55 AM 71.6 °F 59.0 °F 64% 30.23 in 10.0 mi NNE 10.4 mph - N/A   Overcast
11:15 AM 71.6 °F 59.0 °F 64% 30.24 in 10.0 mi NNE 10.4 mph 17.3 mph N/A   Overcast
11:35 AM 71.6 °F 59.0 °F 64% 30.23 in 10.0 mi NE 11.5 mph - N/A   Overcast
11:55 AM 71.6 °F 59.0 °F 64% 30.23 in 10.0 mi NNE 10.4 mph - N/A   Mostly Cloudy
12:15 PM 71.6 °F 59.0 °F 64% 30.23 in 10.0 mi NNE 12.7 mph 18.4 mph N/A   Mostly Cloudy
12:35 PM 69.8 °F 59.0 °F 68% 30.24 in 10.0 mi NE 13.8 mph - N/A   Mostly Cloudy
12:55 PM 69.8 °F 59.0 °F 68% 30.24 in 10.0 mi NE 12.7 mph 18.4 mph N/A   Overcast
1:15 PM 69.8 °F 59.0 °F 68% 30.24 in 10.0 mi NNE 8.1 mph - N/A   Mostly Cloudy
1:35 PM 71.6 °F 60.8 °F 69% 30.24 in 10.0 mi NNE 12.7 mph 18.4 mph N/A   Mostly Cloudy
1:55 PM 73.4 °F 59.0 °F 61% 30.23 in 10.0 mi NE 10.4 mph 17.3 mph N/A   Scattered Clouds
2:15 PM 71.6 °F 59.0 °F 64% 30.23 in 10.0 mi NNE 12.7 mph - N/A   Scattered Clouds
2:35 PM 73.4 °F 59.0 °F 61% 30.22 in 10.0 mi NNE 11.5 mph 16.1 mph N/A   Scattered Clouds
2:55 PM 71.6 °F 59.0 °F 64% 30.22 in 10.0 mi North 10.4 mph - N/A   Scattered Clouds
3:15 PM 71.6 °F 59.0 °F 64% 30.22 in 10.0 mi NE 9.2 mph - N/A   Scattered Clouds
3:35 PM 73.4 °F 59.0 °F 61% 30.21 in 10.0 mi NE 8.1 mph - N/A   Scattered Clouds
3:55 PM 73.4 °F 57.2 °F 57% 30.21 in 10.0 mi NE 13.8 mph - N/A   Mostly Cloudy
4:15 PM 73.4 °F 57.2 °F 57% 30.21 in 10.0 mi NE 10.4 mph 17.3 mph N/A   Mostly Cloudy
4:35 PM 73.4 °F 57.2 °F 57% 30.21 in 10.0 mi NE 13.8 mph - N/A   Mostly Cloudy
4:55 PM 71.6 °F 57.2 °F 60% 30.21 in 10.0 mi NE 10.4 mph 16.1 mph N/A   Mostly Cloudy
5:15 PM 71.6 °F 57.2 °F 60% 30.21 in 10.0 mi NNE 12.7 mph - N/A   Overcast
5:35 PM 71.6 °F 59.0 °F 64% 30.21 in 10.0 mi NNE 9.2 mph - N/A   Overcast
5:55 PM 71.6 °F 59.0 °F 64% 30.21 in 10.0 mi NNE 9.2 mph - N/A   Overcast
6:15 PM 71.6 °F 59.0 °F 64% 30.21 in 10.0 mi NNE 9.2 mph - N/A   Overcast
6:35 PM 69.8 °F 59.0 °F 68% 30.21 in 10.0 mi NNE 8.1 mph - N/A   Overcast
6:55 PM 69.8 °F 59.0 °F 68% 30.21 in 10.0 mi NE 8.1 mph - N/A   Overcast
7:15 PM 68.0 °F 57.2 °F 68% 30.21 in 10.0 mi NE 8.1 mph - N/A   Mostly Cloudy
7:35 PM 68.0 °F 57.2 °F 68% 30.21 in 10.0 mi NE 6.9 mph - N/A   Mostly Cloudy
7:55 PM 64.4 °F 57.2 °F 77% 30.22 in 10.0 mi NE 5.8 mph - N/A   Scattered Clouds
8:15 PM 64.4 °F 55.4 °F 73% 30.22 in 10.0 mi NE 4.6 mph - N/A   Clear
8:35 PM 62.6 °F 55.4 °F 77% 30.22 in 10.0 mi ENE 4.6 mph - N/A   Clear
8:55 PM 62.6 °F 55.4 °F 77% 30.23 in 10.0 mi NE 3.5 mph - N/A   Clear
9:15 PM 60.8 °F 55.4 °F 82% 30.23 in 10.0 mi NE 3.5 mph - N/A   Mostly Cloudy
9:35 PM 62.6 °F 57.2 °F 82% 30.23 in 10.0 mi NNE 4.6 mph - N/A   Overcast
9:55 PM 64.4 °F 55.4 °F 73% 30.23 in 10.0 mi NNE 6.9 mph - N/A   Overcast
10:15 PM 64.4 °F 57.2 °F 77% 30.24 in 10.0 mi NE 5.8 mph - N/A   Overcast
10:35 PM 62.6 °F 57.2 °F 82% 30.25 in 10.0 mi NE 6.9 mph - N/A   Mostly Cloudy
10:55 PM 62.6 °F 55.4 °F 77% 30.25 in 10.0 mi NE 6.9 mph - N/A   Scattered Clouds
11:15 PM 60.8 °F 55.4 °F 82% 30.25 in 10.0 mi NE 8.1 mph - N/A   Scattered Clouds
11:35 PM 60.8 °F 55.4 °F 82% 30.25 in 10.0 mi NE 6.9 mph - N/A   Clear
11:55 PM 60.8 °F 55.4 °F 82% 30.26 in 10.0 mi NE 6.9 mph - N/A   Clear